Theta_e
302 308 312 313 309 312 312 315 318 316 313 322 323 321 319 320 320 321 319 319 319 320 321 321 319 320 320 319 320 322 320 323 325 322 318 318 320 321 320 318 318 320 320 317
304 304 309 312 310 312 313 316 320 321 321 325 323 319 319 322 320 321 321 321 321 321 322 322 322 323 318 318 320 322 320 323 324 322 320 319 320 320 319 317 319 319 326 316
303 303 305 311 310 312 315 316 322 321 317 317 320 319 320 321 319 321 321 322 322 323 323 323 324 323 319 316 318 313 316 322 322 322 321 320 321 320 319 319 319 317 318 316
301 306 307 310 311 312 318 318 320 321 323 318 319 319 319 321 322 321 321 322 323 324 325 323 324 322 317 317 315 318 320 322 320 318 316 316 317 318 319 318 318 318 317 316
301 305 311 310 312 312 319 319 320 317 319 316 318 317 320 321 321 322 322 324 323 323 324 323 325 323 320 321 318 320 317 321 318 319 316 316 316 317 316 318 318 318 318 317
304 308 310 309 312 312 319 318 317 318 314 317 319 319 321 321 323 320 320 323 323 324 322 320 321 318 318 318 321 320 320 320 318 317 313 314 319 318 317 317 318 318 318 318
307 310 309 311 312 315 319 318 316 319 319 317 316 318 321 322 322 323 319 320 323 317 316 316 316 316 316 316 315 315 317 317 316 319 312 324 314 312 313 317 317 316 316 316
310 309 309 312 312 316 318 318 316 315 320 317 316 319 322 320 320 321 320 318 317 315 316 321 321 321 321 318 314 313 313 315 315 324 315 314 313 311 311 313 313 315 314 315
309 309 311 313 312 316 319 319 319 315 318 318 316 319 321 323 323 322 316 313 313 311 317 322 326 325 322 320 319 313 311 313 319 314 328 330 314 312 313 313 315 312 314 315
308 311 312 313 312 316 320 320 321 318 321 315 319 319 321 320 322 323 316 314 315 312 321 330 327 324 314 319 318 317 319 317 322 318 324 318 313 310 312 315 314 313 314 314
311 312 313 313 312 315 319 320 320 320 320 318 318 317 319 318 321 325 317 318 317 318 326 327 322 325 316 316 315 317 319 321 321 315 323 323 310 313 317 316 314 312 314 314
312 314 314 313 312 316 318 320 320 319 319 319 318 317 317 318 319 320 316 322 319 320 323 320 317 319 312 318 322 313 318 318 319 317 318 313 311 314 314 313 313 313 313 313
315 315 314 312 313 317 318 318 319 319 318 318 320 319 317 316 317 317 319 316 318 316 317 317 317 319 317 319 319 317 314 311 315 314 314 313 312 312 311 311 311 312 312 312
316 315 313 313 314 317 318 318 319 319 319 318 318 317 319 318 317 317 317 318 316 314 313 316 313 321 311 317 315 317 314 312 314 314 314 312 312 311 311 312 313 312 312 312
317 316 314 313 314 317 318 317 318 318 316 315 318 316 317 319 317 318 316 316 316 314 315 314 321 311 313 309 312 315 311 314 316 316 311 311 312 312 312 312 312 312 312 309
317 316 315 314 315 317 316 316 316 313 318 318 318 314 315 315 315 315 314 314 314 316 317 311 310 308 314 315 318 311 310 311 311 313 312 312 312 311 310 310 307 306 305 303
318 315 315 316 316 316 315 315 315 314 313 315 313 316 315 316 317 317 317 317 316 316 311 308 310 310 313 311 319 307 306 307 309 309 311 312 308 306 303 302 300 301 299 297
316 316 316 316 317 315 314 313 312 311 311 311 314 313 315 314 312 311 313 314 314 310 308 308 309 308 310 313 303 303 304 305 308 304 307 305 302 301 300 298 298 298 297 297
313 313 313 313 313 314 313 312 311 310 310 313 307 317 316 309 308 309 310 311 311 309 309 309 312 308 309 300 300 301 301 302 303 302 302 301 299 297 296 297 298 297 296 296
310 310 309 310 313 313 311 310 310 310 311 310 305 305 308 309 308 306 309 307 310 312 309 307 310 301 298 298 299 300 300 301 301 302 298 297 297 297 298 297 297 295 295 294
309 310 311 312 310 310 310 308 310 310 310 306 305 307 308 306 309 308 304 309 307 312 310 312 309 304 298 298 298 299 299 299 300 300 298 298 298 298 296 295 294 294 294 294
311 311 310 310 310 309 308 307 306 309 309 304 306 305 305 304 305 306 305 306 305 308 305 310 308 300 298 298 298 298 298 298 297 297 297 296 296 296 295 293 291 291 290 291
310 310 310 309 306 311 315 312 310 309 303 303 304 305 305 304 305 304 306 307 309 305 308 308 303 299 298 297 297 297 296 295 295 294 292 291 291 291 291 291 291 291 291 291
310 307 307 307 309 307 305 307 306 300 302 304 305 303 305 304 305 303 310 304 305 308 308 306 300 298 297 297 297 296 294 292 292 292 291 291 291 291 291 291 291 291 291 291
302 302 304 302 297 298 298 299 300 300 302 304 304 303 304 303 304 303 305 306 308 307 306 302 298 297 297 295 294 293 293 292 291 291 291 291 291 291 291 291 291 291 291 291
299 298 300 298 299 299 299 299 298 300 301 303 303 303 307 304 305 306 307 308 307 303 300 297 297 296 296 294 294 295 293 292 292 292 292 292 292 292 291 291 289 287 286 285
298 297 298 298 298 298 298 299 299 300 301 302 302 306 304 301 304 304 303 304 302 299 297 296 296 296 296 295 295 294 293 293 292 292 292 291 290 288 287 287 286 285 284 283
Wind_Speed
40 32 38 41 39 35 31 19 9 21 28 14 14 12 9 5 8 6 6 7 7 12 11 7 8 10 2 5 5 5 2 1 4 6 3 1 3 6 9 4 4 1 2 3
51 47 27 40 43 42 38 21 11 23 31 12 10 7 5 5 6 9 9 7 6 5 9 6 5 6 2 3 5 7 7 3 4 5 5 5 7 9 5 4 1 6 3 2
48 42 29 44 44 43 34 21 7 8 14 11 16 13 12 8 3 5 5 5 4 7 6 1 7 8 2 3 2 3 4 3 7 10 2 0 6 11 12 11 4 5 9 10
48 26 40 48 46 46 29 19 8 15 12 11 13 15 15 11 7 4 7 4 8 8 5 6 6 6 6 3 6 3 3 6 4 2 0 3 5 8 13 16 14 8 12 11
42 31 41 46 46 51 27 16 8 10 22 17 13 11 11 15 6 5 7 8 10 7 5 7 10 10 7 5 7 5 2 3 3 3 3 3 7 10 11 15 16 15 19 20
28 40 44 45 48 54 23 21 17 23 8 10 11 11 11 14 11 3 3 12 8 6 4 5 9 8 9 6 7 6 4 6 4 2 2 3 6 16 18 13 13 15 14 16
31 41 42 44 51 46 22 18 19 14 6 10 12 12 9 14 7 7 4 5 4 6 20 21 19 19 15 12 10 3 5 5 2 1 1 3 1 1 3 13 17 15 17 13
38 40 42 44 52 42 22 19 16 9 4 13 10 12 7 11 9 6 7 5 5 22 5 4 4 2 2 5 7 5 1 4 3 2 4 6 12 3 3 4 6 5 11 11
37 39 41 44 52 42 18 19 13 12 11 9 15 13 16 7 5 5 5 9 19 4 2 2 4 4 3 4 4 3 4 3 1 3 3 3 3 3 1 2 5 7 4 4
36 37 39 44 52 43 16 17 13 9 7 7 12 12 12 7 6 5 8 11 3 2 2 2 2 3 1 5 5 4 2 1 4 3 4 6 1 2 3 3 3 7 4 7
34 35 39 46 51 41 20 19 15 11 6 8 8 10 9 8 10 6 12 7 2 2 2 2 3 2 4 3 2 4 5 6 3 3 3 4 5 6 3 4 6 6 5 6
32 34 38 44 46 35 23 16 15 12 7 6 10 11 14 14 12 11 19 1 7 8 4 1 3 2 1 1 3 3 3 3 1 6 1 3 7 6 4 6 11 10 8 7
31 35 39 45 48 31 22 16 16 13 11 9 6 5 9 11 13 15 8 6 8 7 7 6 2 3 3 4 4 3 4 4 3 1 2 7 9 10 11 11 15 14 14 13
30 34 38 43 47 28 17 16 15 13 9 6 4 7 7 7 12 12 11 12 16 16 8 4 3 3 4 2 1 2 3 8 4 4 10 7 2 5 7 13 12 12 10 10
30 34 38 41 43 27 16 18 11 8 3 6 7 11 9 8 9 6 8 16 16 9 5 3 2 5 4 1 0 1 1 3 2 2 7 5 9 12 13 12 12 11 8 6
29 33 36 38 37 29 20 15 14 9 12 7 4 5 6 12 13 14 15 13 8 5 5 4 4 2 2 3 4 4 6 5 6 6 14 11 10 6 11 8 8 6 7 8
33 35 37 37 34 25 19 8 13 12 9 5 4 3 3 7 9 7 8 7 5 4 5 4 3 2 4 3 3 7 9 8 4 8 10 1 11 7 10 10 12 11 15 16
32 31 29 25 29 23 18 10 15 11 6 5 4 2 3 3 3 3 4 3 4 7 4 4 3 3 2 2 6 8 10 11 2 10 7 6 8 10 12 12 12 19 23 22
30 28 27 27 19 11 15 17 14 9 4 5 3 4 3 3 4 4 4 3 3 3 2 2 3 2 1 2 5 7 10 8 3 8 11 12 13 14 15 19 21 23 19 18
26 19 9 5 9 24 16 4 3 3 6 6 4 2 3 2 2 3 2 3 2 2 2 3 2 2 4 2 2 4 6 7 9 7 11 14 18 20 20 20 18 15 12 9
12 5 5 18 13 4 3 4 5 3 3 5 4 3 4 3 2 2 2 2 1 3 3 3 3 3 4 6 7 8 9 12 16 19 20 20 20 17 15 12 8 5 2 4
10 16 15 6 4 4 6 2 2 4 2 2 3 4 4 3 3 4 2 3 1 3 4 2 4 4 11 14 14 16 17 18 17 16 15 12 9 7 5 4 5 6 6 6
12 6 5 6 7 6 2 4 1 2 2 3 4 3 3 3 4 5 2 3 2 8 2 2 2 15 15 13 14 12 10 11 10 9 8 7 6 6 5 5 6 6 7 8
6 5 5 4 2 3 2 3 3 3 4 9 10 5 3 3 3 1 3 2 3 4 4 3 6 19 17 13 11 10 9 9 8 8 7 6 5 4 4 5 6 7 7 9
5 4 3 3 3 4 5 8 6 6 7 7 7 6 3 3 2 1 3 4 3 1 2 4 13 17 16 14 11 10 9 8 7 6 5 4 4 3 3 4 5 6 9 12
5 6 4 5 5 3 6 9 8 6 7 7 5 2 2 2 2 3 2 3 2 3 3 9 17 17 19 16 11 9 8 7 5 4 2 2 2 2 3 5 9 13 17 19
4 5 10 11 11 6 5 6 5 6 3 2 2 2 2 2 2 3 0 2 3 11 14 14 13 15 16 15 12 8 7 5 3 2 2 1 3 5 7 11 15 18 20 21
Wind_Direction
215 210 210 202 195 188 186 172 203 189 186 177 199 212 203 183 174 179 196 201 170 190 175 172 191 195 237 167 177 181 117 160 183 199 123 298 270 227 205 235 186 223 311 294
215 214 201 201 193 186 169 172 180 177 170 190 194 188 197 202 162 185 180 165 184 174 173 175 190 182 93 184 203 172 172 197 194 180 177 189 224 198 200 129 145 211 191 256
222 214 214 203 192 185 166 163 181 151 191 219 190 184 189 175 159 158 166 137 139 142 160 113 167 161 143 146 169 125 169 187 239 242 277 203 199 204 203 208 209 226 239 272
214 220 199 191 188 180 173 178 188 175 185 204 198 188 181 176 164 193 174 147 193 167 150 159 166 162 147 142 146 132 227 231 214 234 164 234 252 230 210 217 234 224 268 254
215 210 201 187 183 177 184 164 159 162 166 184 183 180 199 180 152 182 163 185 160 166 169 199 186 169 188 174 173 180 171 200 187 231 216 265 266 248 238 234 247 252 262 266
206 198 188 189 181 179 178 171 163 172 171 178 176 186 173 184 146 68 54 147 137 134 93 81 84 96 95 123 167 164 174 157 164 236 353 277 277 242 227 226 227 237 247 258
195 187 188 187 183 174 174 175 161 160 162 194 191 169 171 171 169 131 100 124 111 122 118 101 85 83 83 85 70 70 144 133 77 120 222 222 315 206 284 248 255 249 259 266
190 183 189 186 182 172 185 180 164 149 127 188 182 176 145 129 113 99 107 52 111 141 126 110 109 66 73 67 53 53 38 137 120 177 218 314 280 191 221 210 291 336 270 274
180 185 185 182 179 174 188 177 167 166 128 206 179 166 173 153 138 118 85 98 143 127 84 123 154 183 176 164 141 70 79 64 234 149 225 252 53 69 185 230 281 8 298 226
180 182 181 179 178 176 179 172 167 151 115 148 163 177 180 156 139 110 129 150 184 115 104 109 159 168 341 171 181 175 117 57 210 177 241 278 291 238 157 243 20 343 274 208
179 180 179 178 177 176 172 174 179 173 112 145 167 161 156 154 169 149 144 132 188 128 134 160 160 150 182 193 136 183 179 164 179 142 205 271 161 144 234 8 332 324 293 246
177 177 177 177 176 174 172 163 172 173 129 141 165 162 177 180 170 140 165 113 152 163 118 129 112 136 146 144 193 195 222 225 223 217 227 110 193 277 299 312 301 305 303 291
174 175 174 174 171 169 172 180 178 165 115 106 117 112 141 173 182 172 150 188 169 165 136 138 117 134 164 163 219 167 216 177 231 249 168 249 259 277 289 293 288 296 283 281
167 170 171 171 173 169 173 181 175 154 132 117 101 129 128 151 165 171 180 189 168 155 127 106 134 122 213 184 103 234 22 168 200 248 285 304 286 318 327 318 311 302 300 292
159 164 166 170 174 172 171 179 172 214 201 131 124 102 80 122 152 169 162 160 150 140 107 97 109 118 140 76 243 208 256 18 243 276 349 316 310 329 326 320 318 314 306 307
149 158 163 167 166 168 152 124 221 217 141 112 123 112 93 105 120 131 133 140 129 105 104 98 103 134 174 146 179 80 28 5 334 294 310 307 317 359 359 358 6 31 69 82
141 149 154 162 167 168 175 148 177 194 146 110 100 105 123 125 117 106 98 107 100 86 96 71 108 111 167 165 178 12 345 337 359 3 348 108 17 20 36 59 75 89 96 101
124 133 142 146 158 160 167 197 157 156 113 104 112 85 124 118 69 75 72 82 82 48 95 98 105 101 72 144 24 358 351 350 81 13 37 78 80 76 77 86 97 99 94 95
119 125 130 130 129 122 128 115 103 100 125 106 84 130 145 87 77 74 62 62 71 69 93 96 152 137 110 41 350 4 1 358 353 74 77 85 87 87 89 97 95 92 85 76
130 130 108 87 112 123 118 85 95 61 36 54 81 83 108 99 114 73 94 46 100 147 78 115 74 91 101 72 76 51 23 25 161 104 88 98 99 107 106 96 89 83 80 75
131 101 94 135 127 108 74 72 51 2 64 43 82 85 117 95 126 116 35 102 70 159 138 208 142 137 156 124 108 88 83 86 91 101 104 104 102 102 95 96 94 78 21 331
97 114 107 98 80 64 77 41 26 34 97 73 88 94 90 100 102 106 101 103 146 158 127 166 170 130 144 132 116 109 107 104 99 101 105 105 100 89 75 45 17 6 356 346
69 64 65 22 3 51 106 161 101 113 138 129 134 94 95 97 88 85 115 135 120 130 178 186 66 148 152 135 127 121 118 112 104 98 91 86 76 63 54 37 20 5 357 348
57 48 48 33 83 48 41 32 74 111 123 121 112 83 71 70 71 66 120 85 150 199 205 168 150 156 154 152 149 140 129 116 106 98 88 75 59 39 24 12 3 357 350 340
80 69 79 66 94 86 101 106 101 102 125 117 99 76 82 47 104 43 128 168 202 245 104 134 157 159 157 151 142 132 122 118 109 100 89 72 57 43 36 30 7 344 330 323
61 58 90 114 96 71 75 90 91 115 118 102 79 95 116 98 114 167 176 193 164 146 131 141 162 159 160 147 147 131 131 130 119 99 70 55 81 53 8 339 334 337 335 334
54 50 81 95 86 80 82 88 84 119 93 74 100 117 72 126 134 136 163 84 113 127 128 132 146 157 167 169 155 150 155 151 156 175 147 84 18 354 339 336 336 339 339 336